Temp
29 28 28 28 27 27 26 26 26 25 25 25 25 25 25 25 25 24 24 24 24 24 24 24 24 24 24 25 24 24 24 24 24 24 24 24 24 24 24 24 24 24 24 24 24 24 24 24 24 25 25 25 25 25 25 25 25 25 25 26 26 27 27 28 28 28 28 29 29 29 29 29 29 29 29 29 29 29 28 28 28 28 28 28 27
29 28 28 28 27 27 26 26 26 26 25 25 25 25 25 25 25 25 25 25 25 25 25 24 24 25 25 25 25 24 24 24 24 24 24 24 24 24 24 24 24 24 24 24 24 24 24 24 24 24 25 25 25 25 25 25 25 25 25 26 26 26 27 28 28 28 29 29 28 29 28 29 29 29 29 29 29 29 29 28 28 29 29 28 28
28 28 28 28 27 27 27 27 26 26 26 25 25 25 25 25 25 25 25 25 25 25 25 25 25 25 25 25 25 25 25 24 24 24 24 24 24 24 24 24 24 24 24 24 24 24 24 24 24 24 25 25 25 25 25 25 25 25 25 26 26 26 27 28 28 27 28 28 28 28 27 28 29 29 29 29 29 29 29 29 29 29 29 28 28
28 28 28 28 27 27 27 27 26 26 26 25 25 25 25 25 25 25 25 25 25 25 25 25 25 26 26 25 25 25 25 25 24 24 24 24 24 24 24 24 24 24 24 24 24 24 24 24 24 24 24 25 25 25 25 25 25 25 25 25 26 26 27 27 28 27 28 28 28 27 26 27 28 28 28 29 29 29 29 29 29 29 29 28 28
28 28 28 27 27 27 27 27 26 26 26 25 25 25 25 25 25 25 25 25 25 25 25 25 25 25 26 25 25 25 25 24 24 24 24 24 24 23 24 24 24 24 24 24 24 24 24 24 24 24 24 25 25 25 25 25 25 25 25 25 26 26 26 27 28 28 28 28 28 27 26 27 28 27 27 28 28 29 29 29 29 29 29 28 28
28 28 28 28 27 27 27 27 26 26 26 26 25 25 25 25 25 25 25 25 25 25 25 25 25 25 25 25 25 25 24 24 24 24 24 24 24 24 24 24 24 24 24 24 24 24 24 24 24 24 25 25 25 25 25 25 25 25 25 25 26 26 26 27 27 28 28 28 28 28 28 28 28 27 27 28 28 28 28 28 29 29 29 28 28
28 28 28 28 27 26 26 26 26 26 26 26 25 25 25 25 25 25 25 25 25 25 25 26 25 25 25 25 25 25 24 24 24 24 24 24 24 24 24 24 24 24 24 24 24 24 24 25 24 25 25 25 25 25 25 25 25 25 25 26 26 26 27 27 27 27 28 28 28 28 28 29 29 28 27 27 28 28 28 28 29 28 29 29 28
28 28 28 27 27 26 26 27 26 26 26 26 26 25 25 25 25 25 25 25 25 25 25 26 25 25 25 25 25 25 25 25 25 24 24 24 24 24 24 24 24 24 24 24 24 24 24 25 24 25 25 25 25 25 25 25 26 26 26 26 26 26 26 26 26 27 27 27 28 29 29 29 29 29 29 28 27 28 28 28 29 29 29 29 29
28 28 28 27 27 27 27 27 27 27 26 26 26 25 25 25 25 25 25 25 25 25 26 26 26 26 25 25 25 25 25 25 25 24 24 24 24 24 24 24 24 24 24 24 24 24 24 25 25 24 25 25 25 25 25 25 25 26 26 25 26 26 26 26 26 26 27 27 28 28 29 29 29 29 29 29 28 28 28 27 28 29 29 29 29
28 28 28 27 27 27 27 27 27 27 26 26 26 25 25 25 25 25 25 25 25 25 25 26 26 26 25 25 25 25 25 25 25 24 24 24 24 24 24 24 24 24 24 24 24 24 24 25 25 24 25 25 25 25 25 25 25 25 26 26 26 26 26 26 26 26 27 27 27 28 28 28 29 28 28 28 28 28 28 26 27 28 28 29 29
28 28 28 28 28 27 27 27 27 27 27 26 26 25 25 25 25 25 25 25 25 25 25 25 25 26 26 25 25 25 25 25 25 25 25 25 24 24 24 24 24 24 24 24 24 24 24 24 25 25 25 25 25 25 25 25 25 25 26 26 26 26 26 26 27 27 27 27 27 27 28 28 28 28 28 28 28 28 28 27 27 28 28 28 29
28 28 28 27 27 27 27 27 27 27 27 26 26 26 25 25 25 25 25 25 25 25 25 25 25 25 25 25 25 25 25 25 25 25 25 25 25 24 24 24 24 24 24 24 24 24 24 24 24 25 25 25 25 25 25 25 25 25 26 26 26 26 26 26 27 27 27 27 27 27 27 28 28 28 28 28 28 28 28 27 27 28 28 28 29
28 28 28 27 27 27 27 27 27 27 27 26 26 26 25 25 25 25 25 25 25 25 25 25 25 25 25 25 25 25 25 25 25 25 25 25 25 24 24 24 24 24 24 24 24 24 24 24 24 24 25 25 25 25 25 25 25 25 26 26 26 26 26 26 26 26 27 27 27 27 27 28 28 28 29 29 29 29 28 28 27 27 27 27 28
28 28 28 28 27 27 27 27 27 27 27 26 26 26 25 25 25 25 25 25 25 25 25 25 25 25 25 25 25 25 25 25 25 25 25 25 25 25 25 25 24 24 24 24 24 25 24 24 24 24 24 25 25 25 25 25 25 25 25 26 26 26 26 26 26 26 26 26 27 27 27 28 28 28 28 29 29 29 28 28 28 28 27 27 27
28 28 28 28 27 27 27 27 27 27 27 26 26 25 25 25 25 25 25 25 25 24 24 24 24 24 24 25 25 25 25 25 25 25 25 25 25 25 25 25 25 24 25 25 25 25 25 25 25 25 25 25 25 25 25 25 25 25 25 25 26 26 26 26 26 26 26 26 26 27 27 28 28 28 28 28 28 29 28 28 28 28 27 26 26
27 27 28 28 27 28 28 27 27 27 27 26 26 25 25 25 25 25 25 25 24 24 24 24 24 24 24 24 25 25 25 25 25 25 25 25 25 25 25 25 25 25 25 25 25 25 25 25 25 25 25 25 25 25 25 25 25 25 25 25 25 26 26 26 26 26 26 26 26 27 27 27 27 27 28 28 28 28 28 28 28 28 27 26 26
27 27 27 27 27 28 28 27 27 27 27 26 26 25 25 25 25 24 25 24 24 24 24 24 24 24 24 24 25 25 25 25 25 25 25 25 24 25 25 25 25 25 25 25 25 25 25 25 25 25 25 25 25 25 25 25 25 25 25 25 25 25 26 26 26 26 26 26 26 26 27 27 27 27 28 28 28 28 28 28 28 28 28 27 26
26 27 27 26 27 27 27 27 28 27 27 26 26 26 25 25 25 24 24 24 24 24 24 24 24 24 24 24 25 25 25 25 25 25 25 25 25 25 25 25 25 25 25 25 25 25 25 25 25 25 25 25 25 25 25 25 25 25 25 25 25 25 25 26 26 26 26 26 26 26 26 27 27 27 27 27 28 28 28 28 28 28 28 27 26
26 27 27 26 26 27 27 27 27 27 27 27 26 26 25 25 25 25 25 25 24 24 24 24 24 24 24 24 25 25 25 24 25 25 25 25 25 25 25 25 25 25 25 25 25 25 25 25 25 25 25 25 25 25 25 25 25 24 24 25 25 25 25 25 25 25 26 26 26 26 26 27 27 27 27 27 27 27 27 27 28 28 28 27 27
25 26 27 26 25 26 26 26 27 27 26 26 26 26 25 25 25 25 25 25 24 24 24 24 24 24 24 25 25 25 25 25 25 25 25 25 25 25 25 25 25 25 25 25 25 25 25 26 25 25 25 25 25 25 25 25 25 25 24 24 25 25 25 25 25 25 26 26 26 26 26 26 26 27 27 27 27 27 27 27 27 28 27 27 27
25 25 26 25 25 25 26 26 27 27 26 26 26 26 25 25 25 25 25 24 24 24 24 24 24 24 24 25 25 25 25 25 25 25 25 25 25 25 25 25 25 25 25 25 25 25 25 25 25 25 25 25 25 25 25 25 24 25 25 25 25 25 25 25 25 25 25 25 25 25 26 26 26 26 26 27 27 27 27 27 27 27 27 27 27
25 25 26 25 24 25 25 25 26 26 25 25 25 25 25 25 25 25 24 24 24 24 24 24 24 24 24 25 25 25 25 25 25 25 25 25 25 25 25 25 25 25 25 25 25 25 25 25 25 25 25 25 25 25 25 25 25 24 24 25 25 25 25 25 25 25 25 25 25 25 25 26 26 26 26 26 27 27 27 27 27 27 27 27 27
25 25 25 24 24 24 24 25 25 25 25 25 25 25 25 25 25 25 25 25 25 24 24 24 24 24 25 25 25 25 25 25 25 25 25 25 25 25 25 25 25 25 25 25 25 25 25 25 25 25 25 25 25 25 25 25 25 25 25 25 25 24 25 25 25 25 25 25 25 25 25 25 25 26 26 26 26 26 26 27 27 27 27 27 27
25 25 24 24 24 24 24 24 24 24 24 25 25 25 25 25 25 25 25 25 25 25 25 24 24 24 25 25 25 25 25 25 25 25 25 25 25 25 25 25 25 25 25 25 25 25 25 25 25 25 25 25 25 25 25 25 25 25 25 25 25 25 25 25 25 25 25 25 25 25 25 25 26 26 26 26 26 26 26 26 27 27 26 27 27
23 23 23 23 23 23 24 24 24 24 24 24 25 25 25 25 25 25 25 25 25 25 25 25 25 25 25 25 25 25 25 25 25 25 25 25 25 25 25 25 25 25 25 26 26 26 25 25 25 25 25 25 25 25 25 25 25 25 25 25 25 25 25 25 25 25 25 25 25 25 25 26 26 26 26 26 26 26 26 26 26 26 27 27 26
21 21 21 21 21 22 23 24 24 24 24 24 25 25 25 25 25 25 25 25 25 25 25 25 25 25 25 25 24 24 24 25 25 26 26 26 26 26 26 26 26 26 26 26 26 26 26 26 26 26 26 25 25 25 26 26 25 25 25 25 25 25 25 25 25 25 25 25 25 25 25 26 26 26 26 26 26 26 26 26 26 26 27 26 26
21 21 21 21 22 21 21 23 24 24 24 24 24 24 25 25 25 25 25 25 25 25 25 25 25 25 25 25 25 25 24 24 25 26 26 26 26 26 26 26 26 26 26 26 26 26 26 26 26 26 26 26 26 26 26 26 26 25 25 25 25 25 25 25 25 25 25 25 25 25 25 25 26 26 26 26 26 26 26 26 26 26 26 26 26
21 21 21 21 22 21 21 21 22 22 22 22 22 22 22 23 23 23 24 25 26 26 26 25 25 25 25 25 25 25 24 24 25 26 26 26 26 26 26 27 26 26 26 26 26 26 26 26 26 26 26 26 26 26 26 26 25 25 25 25 25 25 25 26 25 25 25 25 25 25 25 25 26 26 26 26 26 26 26 26 26 26 26 26 26
21 21 20 20 20 20 20 20 20 20 20 20 20 20 21 21 21 21 22 23 24 25 26 26 25 25 25 25 25 25 25 25 25 26 26 26 26 26 26 27 27 27 27 26 26 26 26 26 26 26 26 26 26 26 26 26 25 25 25 25 25 25 25 25 25 25 25 25 25 25 25 26 26 26 26 26 26 26 26 26 26 26 26 26 26
21 20 20 20 20 20 20 20 21 20 20 20 21 21 22 22 22 21 21 21 21 23 24 24 25 25 25 25 25 25 25 25 25 26 26 26 26 27 27 27 27 27 27 26 26 26 26 26 26 26 26 26 26 26 26 26 25 25 25 25 25 25 24 24 24 24 24 25 26 25 26 26 26 26 26 26 26 26 26 26 26 26 26 26 26
20 20 20 20 20 20 20 20 20 20 21 21 21 22 22 22 22 22 21 22 22 22 22 22 22 23 24 24 25 25 25 24 24 26 26 26 26 26 26 26 26 26 26 26 26 26 26 26 26 26 26 26 25 25 26 25 25 25 25 25 25 25 24 24 24 24 24 25 26 26 26 25 25 26 26 26 26 25 26 26 26 26 26 26 26
20 20 20 20 20 20 20 20 20 20 21 21 21 21 22 22 22 21 21 22 23 23 23 23 22 22 22 23 24 25 24 24 24 25 25 25 25 25 26 26 26 26 26 26 26 26 26 26 26 26 26 26 25 25 25 25 25 25 25 25 25 25 24 24 24 24 25 25 25 25 26 25 26 26 26 26 26 26 26 26 26 26 26 26 26
19 19 19 19 19 19 19 19 19 20 20 21 21 21 21 21 21 21 21 22 22 22 23 23 23 22 21 21 22 23 23 23 23 24 24 24 24 25 25 25 25 25 25 26 26 26 26 26 26 26 26 26 25 25 25 25 25 25 25 25 25 25 25 25 24 25 25 25 25 25 26 26 26 26 26 26 26 26 26 26 26 26 26 26 25
19 19 19 19 18 18 19 19 19 19 19 20 21 21 21 21 21 21 21 21 21 22 21 21 22 22 22 21 21 21 21 21 22 22 23 23 24 24 24 24 25 25 25 25 25 25 25 26 26 26 26 26 25 25 25 25 25 25 25 25 25 25 25 25 24 25 25 25 25 25 25 25 26 26 26 26 26 26 26 25 25 26 26 25 25
19 19 18 18 18 18 18 19 19 19 19 19 20 20 20 20 20 20 20 20 20 21 21 20 20 21 22 22 22 21 22 22 22 22 23 23 23 24 24 24 24 24 24 24 24 25 25 25 25 25 26 26 25 25 25 25 25 25 25 25 25 26 26 25 24 25 25 25 25 25 25 25 25 25 25 25 26 26 25 25 25 25 25 25 25
19 19 18 18 18 18 18 19 19 18 19 19 19 19 19 19 19 19 19 19 19 19 20 20 20 20 21 21 21 21 21 21 21 22 22 21 22 22 23 23 23 23 23 23 24 24 24 24 24 25 25 25 25 25 25 24 24 24 25 25 25 25 25 25 25 25 25 25 24 24 25 25 25 25 25 25 25 25 25 25 25 24 24 24 24
18 18 18 18 18 18 18 19 19 18 18 18 19 18 18 18 18 18 18 18 18 18 19 19 20 20 20 20 20 20 20 20 21 21 21 21 21 21 22 23 22 22 22 22 22 23 23 23 23 24 24 24 24 25 25 24 24 24 24 25 25 25 25 24 24 25 25 25 25 25 25 25 25 25 25 24 24 24 24 24 24 24 24 24 24
18 19 19 19 19 19 19 19 19 18 18 18 18 18 18 18 18 18 18 18 18 18 18 19 19 19 19 19 19 19 20 20 21 20 20 20 21 21 21 22 22 22 21 21 21 21 22 22 22 22 23 23 23 24 24 24 23 23 23 24 24 24 24 24 24 24 24 24 24 24 24 24 24 24 24 24 23 24 24 24 24 24 24 24 24
18 19 19 19 19 19 19 19 19 18 18 18 18 18 18 18 18 18 18 18 18 18 18 19 19 19 19 19 19 19 19 19 19 19 19 20 20 20 20 21 21 21 21 20 20 20 20 21 21 21 21 21 22 22 23 23 22 22 22 23 23 24 24 24 23 23 24 24 23 23 23 23 23 23 23 23 23 23 23 23 23 23 23 23 23
18 18 18 19 19 19 19 19 18 18 19 19 19 19 18 18 18 18 18 18 18 19 19 19 19 19 19 19 19 18 18 18 19 19 19 19 19 20 20 20 20 20 20 19 19 19 20 20 19 19 20 20 20 20 21 22 22 22 22 22 23 23 24 24 23 23 23 23 22 22 22 22 22 22 22 22 22 23 23 23 23 23 23 23 23
18 18 18 18 18 18 18 18 18 18 18 19 19 18 18 18 18 18 18 18 19 19 19 19 19 19 19 19 19 18 18 18 18 18 18 18 19 19 19 19 19 19 19 19 18 18 19 19 18 18 18 19 19 20 20 21 21 21 21 22 22 22 23 24 23 23 22 21 21 21 21 21 21 22 22 22 22 22 22 23 23 23 23 23 23
19 19 19 19 18 18 18 18 18 18 18 18 18 18 18 19 19 19 19 19 19 19 19 19 19 19 19 19 19 18 18 18 18 18 18 18 18 18 18 18 18 18 18 18 17 17 17 17 17 17 17 18 18 19 19 20 20 20 21 21 21 22 22 22 22 22 21 21 22 21 21 21 21 21 21 21 21 22 22 22 22 22 22 23 23
20 20 20 20 19 19 18 18 18 19 19 19 19 19 19 19 19 19 19 20 20 19 19 19 19 19 19 19 19 19 19 19 18 18 18 18 18 18 18 18 18 18 18 17 17 17 16 16 16 16 16 17 18 18 18 18 19 19 20 20 20 21 21 21 21 21 21 21 21 21 20 20 20 20 20 20 21 21 21 22 22 22 22 22 23
20 20 20 20 19 19 19 19 19 19 19 20 20 19 19 19 19 19 20 20 20 19 19 19 19 19 19 19 19 19 19 19 18 18 18 18 17 17 17 18 18 18 17 17 16 17 16 16 16 16 16 16 17 17 17 17 17 17 18 18 18 19 19 19 19 19 20 20 20 19 20 20 20 19 20 20 20 20 21 21 21 22 22 22 22
19 19 20 20 19 19 19 19 19 19 19 19 20 19 19 19 19 20 20 20 20 20 20 19 19 19 19 19 19 19 18 18 18 18 18 18 17 17 17 17 17 17 17 17 16 16 16 16 16 15 15 16 16 16 16 16 16 17 17 17 17 17 17 17 17 17 18 18 18 19 19 19 19 19 19 20 20 20 21 21 21 21 21 21 21
20 19 20 19 19 19 19 19 19 19 19 19 19 19 19 19 19 20 20 20 20 20 20 20 20 19 19 19 19 19 18 18 18 18 18 18 18 17 17 17 17 17 17 17 16 16 16 16 15 15 15 16 16 16 16 16 16 16 16 17 17 17 17 17 17 17 17 17 18 18 18 19 19 19 19 19 20 21 21 21 21 21 21 21 21
20 20 19 19 19 19 19 19 19 19 19 19 19 19 19 19 19 19 20 20 20 20 20 20 20 20 19 19 19 19 19 18 18 18 18 18 18 18 18 17 17 17 17 17 16 16 16 15 15 15 16 16 16 17 17 17 17 17 17 17 17 17 17 17 16 16 17 17 17 17 18 19 19 19 19 19 20 21 20 20 20 21 21 21 20
20 20 20 19 19 19 19 19 19 18 19 19 18 18 19 19 19 19 19 19 19 19 20 20 20 19 19 19 19 19 19 19 18 18 18 18 18 18 18 17 17 17 17 17 16 16 16 15 15 16 16 17 17 17 17 17 17 17 17 17 17 17 17 17 17 17 17 18 17 17 18 19 20 20 20 20 20 20 19 19 20 20 20 20 19
20 20 20 20 19 19 19 19 19 19 19 19 19 19 19 19 19 19 19 19 19 19 19 19 19 19 19 19 19 19 19 19 18 18 18 17 17 17 17 17 17 17 17 17 16 16 16 16 16 16 16 16 17 17 17 17 17 17 17 17 17 17 17 17 17 18 18 18 18 18 19 20 20 20 20 20 19 19 19 19 19 19 19 19 19
19 20 20 20 20 19 19 19 19 19 19 18 18 18 18 18 19 19 19 19 19 19 19 19 19 19 18 18 18 18 18 18 18 18 18 17 17 17 17 17 17 17 17 17 17 16 16 16 16 16 16 16 16 16 16 16 16 16 16 16 16 16 16 17 17 17 18 18 18 18 19 19 19 19 19 19 18 18 18 18 18 18 18 18 18
19 19 19 20 20 19 19 19 19 18 18 18 18 18 18 18 18 18 18 19 19 19 18 18 18 18 18 18 18 17 17 17 17 17 17 17 16 16 16 17 17 16 16 17 16 16 16 16 16 15 15 15 15 15 16 16 16 16 15 15 15 16 16 16 17 17 17 18 18 17 17 17 17 17 17 17 17 17 17 17 17 17 17 18 18
Height
809 811 813 815 818 819 821 824 826 828 830 832 834 835 836 837 839 841 842 844 845 846 847 848 849 850 851 852 854 855 856 857 858 859 860 860 861 861 862 863 863 864 864 865 865 865 866 866 866 866 866 867 867 867 867 867 867 867 866 865 865 864 863 862 861 861 860 861 861 861 861 861 861 861 862 862 863 863 862 862 862 862 862 862 861
809 811 813 815 817 819 821 823 825 827 829 832 833 834 836 837 838 840 842 843 845 846 847 848 849 850 851 852 853 854 855 857 858 859 860 860 861 861 862 863 863 864 864 865 865 865 866 866 866 866 867 867 867 867 867 867 867 867 866 866 865 864 863 862 861 861 861 861 861 861 862 861 861 860 861 862 862 862 862 862 863 862 862 862 861
810 811 813 815 816 818 821 822 824 826 828 831 832 834 835 836 838 839 841 842 844 846 846 848 849 850 851 852 853 854 855 856 857 859 860 860 861 862 862 863 863 864 864 865 865 865 866 866 866 866 867 867 867 867 867 867 867 867 866 866 865 864 863 862 862 862 861 861 861 863 863 863 863 861 860 861 861 861 862 862 862 862 862 862 861
811 811 812 814 816 818 820 822 823 825 827 830 831 833 834 836 838 839 840 842 843 845 846 847 848 850 851 852 853 854 855 856 858 859 860 860 861 861 862 862 863 864 864 865 865 865 865 866 866 866 866 867 867 867 867 867 867 867 866 866 865 865 863 862 862 861 861 861 862 864 864 866 868 864 860 860 860 860 861 861 862 862 862 862 861
810 811 811 813 815 816 819 821 822 824 827 828 830 831 833 835 837 838 840 841 843 844 846 847 848 849 850 852 853 854 855 856 857 858 859 860 860 861 861 862 863 863 864 864 865 865 865 866 866 866 866 866 866 866 867 866 867 867 867 866 866 865 864 863 862 862 862 862 862 864 866 868 869 864 861 862 860 860 861 861 862 863 862 862 862
806 808 810 811 813 815 818 820 821 824 826 828 829 831 832 834 836 838 839 841 842 843 845 846 847 848 849 850 851 852 854 855 855 856 857 859 859 860 861 862 862 863 864 864 864 864 865 865 866 866 866 866 866 866 866 866 867 867 867 867 866 866 865 864 863 862 862 862 862 862 864 865 864 862 864 865 863 861 861 862 862 863 862 862 862
804 806 807 810 812 814 817 819 820 822 825 827 830 831 832 834 835 837 838 840 841 842 844 845 846 847 848 849 850 851 852 853 854 855 856 857 858 859 860 861 862 863 863 864 864 864 865 865 865 866 866 866 866 866 866 866 867 867 867 867 866 866 865 864 864 863 863 862 862 862 861 861 861 861 863 865 866 864 862 862 863 863 862 862 861
803 805 806 808 811 813 815 817 819 821 824 827 829 831 832 834 835 837 838 839 841 842 843 844 845 846 847 848 850 851 851 852 854 855 856 857 858 858 859 860 861 862 863 864 864 864 865 865 865 865 866 866 866 866 866 866 866 866 866 866 866 866 866 865 865 865 864 863 862 861 861 861 861 861 862 863 865 867 865 863 863 862 862 862 862
800 802 804 806 808 811 812 815 818 820 823 826 828 830 832 834 836 837 838 839 840 841 842 843 844 845 846 848 849 850 851 852 854 854 856 856 857 858 859 859 860 862 863 863 864 864 864 865 865 865 866 866 866 866 866 866 866 866 866 866 866 866 866 866 866 865 865 864 862 862 862 861 861 862 863 863 863 866 867 864 863 862 862 862 862
798 799 801 804 806 809 811 813 817 819 822 825 827 829 832 833 835 836 837 838 839 841 842 843 844 845 846 847 848 850 851 852 853 854 855 856 857 857 858 859 860 861 862 863 863 864 864 865 865 865 865 865 866 866 866 866 866 866 866 866 866 866 866 866 866 866 865 864 864 863 862 862 863 863 864 864 863 864 865 864 863 863 863 863 863
797 798 799 802 805 808 810 812 815 818 821 824 826 828 831 832 834 836 837 838 838 840 841 842 843 844 845 846 847 848 850 851 852 853 854 855 856 856 857 858 859 860 861 862 863 863 864 864 864 865 865 865 865 866 866 866 866 866 866 866 866 866 866 866 866 865 865 865 864 864 864 863 864 864 864 864 863 863 864 864 864 863 864 863 863
795 797 798 801 804 807 809 811 813 816 819 822 824 827 829 831 833 835 836 837 838 839 841 842 843 844 844 845 847 848 849 850 851 852 853 854 855 856 857 858 858 859 860 861 862 862 863 863 863 864 864 865 865 865 865 866 866 866 865 866 866 866 866 865 865 865 865 865 864 864 865 864 864 864 864 863 863 863 863 864 864 864 864 863 863
794 796 798 799 802 805 807 809 811 814 817 819 823 825 827 829 831 833 835 836 837 838 840 841 842 843 844 845 846 847 848 849 850 851 852 853 854 855 855 856 857 858 859 860 861 861 862 862 863 863 864 864 865 865 865 865 865 865 865 865 865 866 865 865 865 865 865 865 865 865 865 865 865 864 864 864 864 863 863 864 864 864 864 864 864
792 794 796 797 800 802 804 807 809 812 814 817 820 823 826 828 830 832 833 835 837 838 839 840 841 842 844 844 845 847 847 848 850 850 851 852 853 854 855 855 856 857 857 858 859 860 861 861 862 863 863 863 864 864 864 865 865 865 865 865 865 865 865 865 865 865 865 866 865 865 865 865 865 865 865 864 864 864 864 864 864 864 864 864 864
790 792 793 794 797 800 802 804 807 809 812 815 818 821 824 826 828 830 832 834 835 837 838 839 840 842 843 844 845 846 847 848 849 849 851 851 852 853 854 854 855 856 857 857 858 859 860 860 861 862 862 863 863 863 864 864 865 865 865 865 865 865 865 865 865 865 865 866 866 866 866 866 866 865 865 865 865 865 864 864 864 865 866 865 864
789 790 791 792 794 797 800 802 804 807 809 812 815 819 822 824 826 828 830 832 834 835 837 838 839 841 842 843 844 845 846 847 847 849 850 851 852 852 853 854 854 855 856 857 857 858 859 859 860 861 861 862 862 863 863 864 864 864 864 865 865 865 865 865 865 865 865 866 866 866 866 866 866 866 866 866 865 865 865 865 864 865 867 868 867
787 788 788 790 792 795 797 799 802 804 807 810 813 815 819 821 824 827 829 831 833 834 835 837 838 839 841 842 843 844 845 846 846 847 849 850 851 851 852 853 853 854 855 856 857 857 858 858 859 860 860 861 861 861 862 863 863 864 864 864 864 864 864 864 865 865 865 866 866 866 866 866 866 866 866 866 865 865 865 865 865 864 865 867 868
785 784 785 788 790 792 795 797 800 802 804 807 811 814 816 819 822 824 827 828 831 833 834 836 837 838 839 841 842 843 844 845 846 847 848 849 849 850 851 852 852 853 854 855 856 856 857 857 858 859 859 860 860 860 861 862 862 863 863 863 864 864 864 864 864 865 865 865 866 866 866 866 866 866 866 866 866 866 865 865 865 864 864 865 866
783 782 783 785 787 791 793 795 798 800 802 805 809 812 814 817 819 822 824 826 828 831 832 834 836 837 838 839 841 842 843 844 845 846 847 847 848 849 850 850 851 852 853 854 855 855 856 856 857 858 859 859 859 860 860 861 861 862 862 863 863 864 864 864 864 864 865 865 865 865 865 865 865 865 865 866 865 865 865 864 864 864 864 864 864
781 781 782 782 785 788 790 793 795 797 801 804 807 811 813 815 818 820 823 824 827 829 830 832 834 835 837 838 840 841 842 843 844 845 846 846 847 848 849 850 850 851 852 852 853 854 855 855 856 857 858 858 858 859 860 860 860 861 862 862 863 863 863 864 864 864 864 865 865 865 865 865 865 864 864 865 865 865 864 864 864 864 864 864 864
779 779 780 781 783 786 789 791 792 794 800 803 806 809 811 813 816 818 821 823 825 827 829 830 832 834 835 836 838 839 840 842 843 844 845 845 846 847 848 849 850 850 851 851 852 853 854 854 855 856 857 857 858 858 859 859 860 860 861 862 862 862 863 863 863 864 864 864 864 864 864 864 864 864 864 864 864 864 864 864 864 864 864 864 864
778 778 779 780 781 784 788 790 790 793 798 803 806 808 809 812 813 816 819 820 823 825 827 829 830 832 834 835 836 838 839 841 842 843 844 844 845 846 847 848 849 849 850 851 851 852 853 854 854 855 856 856 857 858 858 859 859 860 860 861 861 862 862 862 863 863 863 864 864 864 864 864 864 864 864 864 864 864 864 864 864 864 864 864 864
775 776 777 779 780 782 785 788 790 792 796 801 805 807 808 809 811 814 816 818 821 823 825 827 829 831 832 833 835 836 838 839 840 842 842 843 844 845 846 847 847 848 849 850 851 851 852 853 853 854 855 855 856 857 857 858 858 859 860 860 861 861 861 861 861 862 862 863 863 863 863 863 864 864 863 863 863 863 863 863 863 863 863 863 863
775 776 776 778 782 784 785 787 789 792 795 799 802 805 806 807 810 811 814 816 819 822 825 826 828 829 831 832 834 835 836 838 839 840 841 842 843 844 845 845 846 847 848 849 850 850 851 851 852 853 853 854 855 856 856 857 858 858 859 859 860 860 860 860 860 861 861 861 862 862 862 862 863 863 863 863 863 863 863 863 863 863 863 863 863
781 782 781 782 784 786 785 787 789 791 794 797 800 802 803 804 807 809 812 815 818 821 823 825 827 829 830 832 833 834 836 836 838 839 840 841 842 842 843 844 845 845 846 847 848 849 850 850 851 851 852 853 853 854 855 856 857 857 858 858 859 859 859 859 859 860 860 860 860 860 861 861 862 862 862 862 862 862 862 862 862 862 862 862 862
785 786 788 789 791 791 787 786 789 790 792 795 796 798 799 801 805 807 810 813 816 819 821 823 826 828 830 831 832 834 836 837 837 837 838 839 840 841 842 842 843 844 844 845 846 847 848 848 849 850 850 851 852 853 854 854 855 856 856 857 857 858 858 858 858 859 859 859 859 859 860 860 861 861 861 861 861 862 861 861 861 861 861 861 861
783 784 786 788 790 792 788 787 789 791 793 795 796 796 797 799 802 805 808 810 813 817 819 822 825 826 828 829 829 831 834 836 837 836 837 838 838 839 840 841 841 842 843 843 844 845 846 846 847 848 849 849 850 851 852 853 854 854 855 856 856 857 857 857 857 857 858 858 858 858 859 859 859 859 860 860 860 860 861 861 861 861 861 861 861
785 786 786 786 787 789 790 791 794 796 798 799 800 800 799 801 803 805 808 809 812 815 817 820 823 825 827 828 829 830 832 834 835 835 836 836 837 838 838 838 840 840 841 841 842 843 844 845 846 846 847 848 849 849 850 851 852 853 854 854 855 855 855 856 856 856 856 857 857 858 858 858 858 858 859 859 859 859 860 860 860 860 860 860 860
787 788 788 789 789 789 792 795 797 800 803 803 804 805 805 807 809 811 813 813 812 814 816 819 821 823 825 827 829 830 831 832 833 833 834 835 835 836 836 836 837 838 839 840 840 841 842 843 844 845 846 846 847 848 849 849 851 851 852 853 853 854 854 854 855 855 855 855 856 856 856 857 857 857 857 858 858 858 858 858 859 859 859 859 859
787 788 788 789 788 788 790 792 795 799 802 804 807 807 807 810 812 814 816 818 818 817 817 818 821 822 824 826 827 829 829 830 831 830 831 833 833 833 834 834 835 836 837 838 839 840 841 842 843 843 844 845 845 846 847 848 849 850 850 851 852 852 852 853 854 854 854 854 854 854 855 855 855 855 855 856 856 857 857 857 858 858 858 858 858
788 787 787 786 786 788 789 790 793 796 798 801 805 807 807 809 811 812 814 817 820 820 819 820 822 824 825 825 825 826 827 828 829 828 829 830 832 832 832 833 833 834 835 835 837 838 839 840 841 842 843 843 844 845 845 846 847 848 849 849 850 850 850 852 853 853 853 852 852 853 853 853 854 854 854 854 854 855 856 856 857 857 857 857 857
789 789 788 787 786 787 789 790 792 794 795 798 801 805 807 808 809 811 812 815 817 817 817 819 823 826 827 827 825 824 825 826 826 826 827 828 830 830 831 831 832 832 833 834 835 836 837 838 839 840 841 842 843 843 843 844 845 846 847 847 848 849 849 850 851 851 851 851 851 851 851 851 852 852 852 852 853 853 854 855 856 855 855 856 855
790 790 790 789 789 788 789 791 792 794 796 797 798 802 806 807 807 808 810 812 814 815 815 816 820 823 826 827 826 824 824 826 825 824 825 826 827 829 829 830 831 831 832 832 833 834 835 836 837 838 839 840 841 842 842 843 843 844 845 845 846 847 847 848 848 849 850 849 849 850 850 850 850 850 851 851 851 852 852 853 854 854 854 854 854
792 792 791 790 791 791 791 792 794 797 799 800 800 801 803 806 807 808 809 810 812 815 817 817 818 819 821 825 827 826 826 827 826 824 824 824 825 827 828 829 829 830 831 831 832 833 834 835 835 836 837 838 839 840 841 841 841 841 842 843 844 844 845 845 846 847 847 847 848 848 848 849 849 849 849 849 849 850 851 851 852 853 853 853 854
796 795 794 792 792 793 793 792 793 796 799 802 804 803 804 807 810 811 812 812 812 814 817 819 819 819 819 822 824 825 825 825 824 823 823 824 824 825 826 828 828 829 830 830 831 832 833 834 834 835 836 836 837 838 839 839 840 840 840 841 842 842 842 843 844 844 845 846 846 847 847 847 847 848 848 848 848 848 849 850 850 851 852 852 852
796 798 797 797 796 795 794 795 795 797 800 803 806 807 808 810 813 815 817 817 817 817 818 818 818 819 820 821 823 824 824 824 824 823 823 824 825 825 825 826 827 828 829 829 830 831 832 833 834 834 834 835 835 836 837 838 838 838 838 838 839 840 840 840 841 842 843 844 845 845 845 845 846 846 847 847 847 847 848 848 849 849 850 850 851
796 798 800 801 801 799 797 798 798 799 802 805 807 808 809 811 813 816 818 819 821 821 820 819 817 817 819 820 822 823 823 823 823 822 822 824 826 826 826 825 826 827 827 828 829 830 831 832 833 833 834 834 834 834 835 836 837 837 837 837 837 837 838 839 839 840 841 842 843 844 844 844 844 845 845 845 846 846 846 847 847 847 848 848 849
798 799 801 803 804 802 800 801 800 802 805 808 810 810 810 811 813 816 818 819 821 822 822 820 818 818 819 820 821 822 823 823 822 820 821 823 825 826 826 825 825 825 826 828 828 829 831 832 832 833 833 833 833 833 833 834 835 835 835 836 836 836 836 837 838 839 840 841 842 842 843 843 843 843 844 844 845 845 846 846 846 846 846 847 847
803 803 802 803 804 802 801 801 802 804 808 810 813 814 814 813 814 817 819 820 821 822 822 820 820 820 820 819 819 821 825 825 823 822 822 823 824 825 825 824 824 824 825 827 827 829 832 832 831 832 832 832 833 832 832 833 833 834 834 834 834 834 835 835 836 837 838 839 840 841 841 842 842 842 842 843 843 844 845 845 845 845 845 846 846
807 808 805 804 806 806 806 806 806 809 813 815 816 816 817 817 817 818 819 819 819 820 821 821 822 822 821 818 819 824 828 827 824 823 823 823 823 823 823 823 823 823 824 825 827 829 830 830 830 830 831 831 832 832 832 832 832 833 833 833 833 833 833 833 834 835 836 837 839 840 841 841 841 841 841 842 842 843 843 844 844 844 844 844 845
807 810 809 809 811 811 812 813 814 816 819 819 819 817 817 818 817 817 818 819 819 820 821 822 822 822 821 821 823 828 829 827 824 823 822 822 822 821 822 822 823 823 823 824 825 826 827 828 829 829 829 830 831 832 832 832 831 831 832 831 832 832 832 832 833 834 835 836 838 840 841 841 841 841 841 841 842 842 843 843 843 843 843 843 843
808 811 812 812 813 813 814 817 819 821 822 822 820 817 816 817 817 817 818 820 820 822 823 823 823 823 824 826 828 830 829 826 825 824 823 823 822 822 822 822 823 823 823 824 825 826 826 827 828 828 829 829 830 831 831 831 831 830 830 830 830 830 830 830 831 831 832 834 836 838 839 841 841 840 840 841 841 842 842 842 842 842 842 842 842
811 812 812 812 814 815 818 820 822 822 823 822 819 815 815 817 819 819 820 821 823 824 824 825 825 826 827 828 829 829 828 828 827 826 825 825 824 824 824 823 824 824 824 825 826 826 827 828 828 829 830 830 830 830 830 830 830 829 829 829 829 829 828 828 828 829 831 832 833 834 836 838 840 840 840 840 840 841 841 842 842 842 842 842 841
814 814 814 814 816 818 820 822 823 822 822 820 818 817 818 820 821 822 823 824 825 826 826 826 827 828 829 829 829 829 829 828 828 828 827 827 826 826 825 825 825 825 825 826 827 827 828 828 829 830 830 830 830 829 829 829 829 829 829 828 828 828 826 826 828 829 831 831 831 833 834 836 837 838 838 839 839 839 840 840 841 841 841 841 841
816 817 817 817 818 819 820 822 823 823 822 821 820 820 821 822 824 825 825 826 826 827 827 827 828 829 829 829 829 829 829 829 829 829 829 828 828 828 828 828 827 827 827 827 828 828 829 829 830 830 830 830 830 830 830 830 830 830 830 829 829 828 828 828 829 830 831 831 831 832 833 834 835 836 837 837 838 838 838 839 840 840 840 841 840
818 819 819 819 820 821 822 823 823 824 824 823 824 824 824 825 826 826 827 827 827 827 827 828 829 829 830 830 829 829 830 830 830 830 830 830 830 830 830 830 829 829 829 829 829 830 830 830 831 831 831 831 831 831 831 831 831 831 831 831 831 830 830 830 830 830 830 830 831 832 832 833 834 834 834 835 836 836 837 837 838 838 839 839 840
819 820 821 821 821 822 824 824 825 826 826 826 826 826 826 827 827 827 828 828 828 828 829 829 829 830 830 830 830 830 830 831 831 831 831 831 831 831 831 831 831 831 831 831 831 831 832 832 832 832 832 832 832 832 832 832 832 832 832 832 832 831 831 831 831 831 830 830 831 831 831 832 833 833 833 833 833 834 835 836 836 836 837 838 838
820 820 821 822 823 825 826 826 827 828 828 828 828 828 828 828 828 828 828 829 829 829 830 830 830 830 831 831 831 831 831 831 831 831 831 832 832 832 832 832 832 832 832 832 832 833 833 834 834 834 834 834 834 834 833 833 833 833 833 833 833 832 832 831 831 831 831 831 831 831 831 831 831 831 832 832 832 833 834 835 835 835 835 836 837
822 821 822 822 823 825 826 828 829 829 829 830 830 830 830 829 829 829 829 829 830 830 831 831 831 831 832 832 832 832 832 832 832 832 832 832 832 833 833 833 833 833 833 833 834 834 834 835 835 835 836 835 835 835 835 835 834 834 834 834 833 833 832 832 832 832 831 831 831 830 830 830 830 830 830 831 831 833 834 835 836 835 835 836 836
823 824 824 824 825 826 826 828 829 830 830 831 831 831 832 831 831 831 830 830 831 831 831 832 832 832 833 833 833 834 834 833 833 833 832 832 832 833 833 834 834 835 835 835 835 835 836 836 836 836 837 836 836 836 836 836 835 835 834 834 833 833 833 832 832 832 831 831 830 829 829 829 829 829 830 830 832 833 835 836 837 836 836 837 837
825 826 826 826 826 827 827 828 829 830 830 831 831 832 832 832 832 832 832 832 832 832 832 832 832 833 834 834 834 834 834 834 834 834 833 832 832 832 833 833 834 835 835 836 836 836 837 837 837 837 837 837 837 836 836 836 836 835 835 834 834 834 833 833 833 832 832 831 831 830 830 830 830 830 831 832 834 834 836 837 837 837 838 838 838
Wind_Speed
13 23 28 27 27 28 29 28 27 27 27 27 25 24 25 25 26 26 24 21 21 23 23 22 19 17 17 20 22 21 20 20 19 17 15 14 15 15 14 13 11 11 11 11 11 10 8 5 5 6 4 2 2 1 1 2 4 5 6 6 7 9 8 5 5 4 5 8 6 6 5 4 5 5 6 7 5 5 8 10 7 2 2 2 1
11 20 25 25 26 28 28 27 27 28 28 28 27 26 26 26 26 26 25 24 24 25 24 22 19 19 20 22 22 21 21 21 20 18 14 13 15 15 14 13 12 12 12 12 12 10 8 6 5 4 4 3 3 2 1 2 3 5 6 6 7 10 10 6 4 3 3 4 3 3 2 4 5 5 5 5 5 6 8 11 9 4 3 3 1
9 16 20 23 26 28 27 25 27 28 29 29 29 28 28 27 26 25 25 25 26 25 24 21 19 20 20 21 21 20 20 19 18 16 13 12 15 15 14 15 14 13 12 12 12 10 9 7 5 4 5 4 3 2 0 1 3 4 5 7 8 10 10 5 4 5 1 3 3 1 1 1 3 5 5 5 6 6 10 12 10 5 4 4 3
11 15 17 21 26 27 25 24 26 28 28 28 30 29 28 28 26 25 25 25 25 25 23 20 19 19 18 18 19 19 18 18 16 14 12 12 14 13 13 14 14 13 12 11 10 9 8 7 6 6 5 4 3 2 1 1 3 4 5 7 8 10 12 8 5 7 4 1 1 0 1 2 1 4 3 4 4 5 11 14 12 7 5 5 5
13 15 15 18 23 25 25 26 26 27 27 28 30 29 28 29 27 26 26 24 24 23 21 19 19 20 18 17 18 17 16 17 16 15 14 14 13 13 12 13 13 12 12 10 8 7 8 7 7 6 5 4 3 2 1 1 2 3 4 6 7 9 12 11 8 8 9 6 2 1 1 1 1 2 2 5 5 4 12 16 12 8 7 7 6
14 15 15 18 22 23 26 27 26 27 27 28 30 28 29 29 27 27 27 25 24 23 20 20 20 20 20 19 19 18 17 19 18 17 18 16 14 13 11 12 12 11 11 9 7 7 8 8 7 6 5 4 3 1 1 0 1 2 4 5 6 6 9 12 11 9 10 10 7 4 2 1 2 0 1 2 5 6 10 13 10 8 7 8 8
13 15 16 18 21 23 25 27 27 27 27 29 28 27 29 29 27 27 28 27 25 22 21 21 21 21 21 20 21 20 20 21 19 18 17 16 14 13 11 12 11 10 10 9 7 8 9 9 8 7 6 4 2 1 0 0 1 1 3 5 5 6 7 10 12 11 10 10 10 9 8 4 3 3 3 2 3 4 7 10 8 4 4 6 9
12 15 16 18 22 24 26 27 28 28 28 28 26 26 30 29 27 27 28 28 24 23 24 23 22 22 22 21 21 21 21 22 21 19 16 15 14 12 12 14 12 10 10 9 8 8 10 10 9 8 6 4 3 2 0 1 1 0 2 4 3 4 6 7 9 12 13 13 11 11 11 9 6 6 6 4 3 2 1 4 4 1 3 3 3
12 15 16 18 23 26 29 29 28 29 29 28 26 27 30 29 28 28 28 27 24 24 25 24 22 23 23 22 22 22 20 21 21 19 18 16 15 13 13 15 13 11 12 11 9 9 9 10 10 9 7 5 4 2 1 2 2 1 1 3 3 2 3 5 7 10 12 14 14 13 12 11 8 7 6 4 4 3 1 3 3 1 3 2 1
11 15 18 21 25 28 30 30 29 29 29 28 27 27 30 30 29 28 28 27 26 25 25 24 23 24 24 24 23 22 20 20 20 20 19 18 16 15 15 15 14 13 13 12 10 9 9 10 10 9 8 6 5 3 2 3 4 3 1 1 3 3 2 3 6 8 9 12 14 14 13 12 9 6 5 5 3 2 1 3 4 2 1 1 1
9 12 18 23 27 28 30 30 29 29 29 28 27 28 30 30 30 29 28 28 27 25 24 24 24 25 26 25 25 24 22 21 21 21 20 19 18 18 16 15 15 14 13 13 11 10 9 9 10 9 8 7 5 4 3 5 5 3 2 0 2 4 3 3 4 6 7 9 12 13 12 11 10 8 8 6 3 2 0 1 2 3 3 4 3
8 10 15 19 22 25 27 28 29 30 29 28 28 30 31 30 30 29 29 29 28 26 25 25 25 26 26 26 26 25 23 23 22 21 21 20 19 20 18 17 16 15 13 13 12 11 10 9 9 9 9 7 6 5 4 4 3 2 2 2 2 3 3 3 3 5 7 8 10 11 11 11 11 10 8 6 4 3 0 2 2 1 3 3 3
8 10 13 14 16 21 24 26 28 29 30 30 29 30 31 31 30 30 29 29 28 27 26 26 26 26 26 26 26 24 23 23 22 21 21 20 19 20 20 18 18 16 15 14 12 11 11 11 9 9 9 7 7 7 5 4 3 3 3 4 3 2 2 3 3 4 6 8 9 9 9 10 11 10 7 6 6 5 4 3 3 3 2 3 3
7 10 13 13 15 21 24 26 27 28 30 31 31 31 31 31 30 30 29 29 29 28 27 27 26 26 25 25 25 24 23 23 22 22 21 20 20 20 20 19 18 18 16 15 12 10 11 11 10 9 8 8 9 8 7 5 4 4 4 5 4 2 2 2 3 3 4 6 8 8 7 7 9 9 6 5 5 5 5 4 3 3 3 5 6
6 9 12 14 19 24 25 26 28 28 30 31 32 32 31 31 31 30 29 29 29 28 28 28 27 26 24 23 24 24 23 22 22 22 21 20 20 20 19 19 19 18 17 15 13 12 11 11 11 11 10 10 10 9 8 7 6 6 6 6 5 4 3 3 3 2 3 5 6 7 7 6 7 8 5 4 3 3 3 3 2 2 3 5 6
7 8 10 15 22 26 26 27 28 28 30 32 32 32 32 31 32 31 30 30 29 29 28 28 27 25 24 23 23 23 23 23 22 21 21 20 20 20 19 18 18 18 17 16 14 13 13 12 12 13 12 12 11 11 10 9 8 7 7 7 7 5 5 5 4 4 4 5 5 6 6 6 6 7 6 4 4 4 3 3 3 2 2 2 4
8 9 10 13 20 24 26 28 27 28 31 32 33 34 34 33 33 32 31 30 29 28 28 27 26 25 24 23 22 23 23 23 23 22 20 20 19 19 18 17 17 17 17 17 15 14 14 14 14 14 12 12 12 11 10 10 10 9 8 9 8 7 7 6 5 5 5 6 5 5 6 6 5 5 5 4 3 3 3 4 4 1 1 1 1
9 11 10 12 18 22 25 28 28 30 32 33 34 35 35 35 35 33 32 31 31 29 28 28 27 25 24 23 22 23 23 23 23 21 20 20 19 18 17 16 16 15 15 16 15 14 14 13 15 15 13 11 11 9 9 10 11 9 8 9 9 8 8 8 7 6 6 6 6 4 4 5 5 4 3 3 3 3 4 4 3 2 3 1 2
9 11 10 10 15 20 22 25 26 28 33 35 36 35 34 35 36 35 34 33 32 30 28 28 27 25 25 24 23 23 22 22 21 20 20 20 19 18 17 16 16 15 14 15 14 15 15 13 14 15 12 10 10 9 8 9 10 10 9 8 7 7 8 8 8 8 8 7 6 5 5 6 6 5 4 4 3 3 5 6 4 2 3 3 3
9 10 9 9 15 20 22 25 27 27 29 33 35 35 34 34 34 34 34 33 32 31 29 28 28 26 25 24 24 23 22 22 21 20 20 20 19 19 18 17 17 16 15 15 15 15 15 13 13 14 12 10 11 10 9 8 9 10 10 9 8 7 7 8 8 8 8 8 7 6 6 6 7 8 8 7 6 4 6 7 5 3 3 4 4
9 9 9 9 14 20 21 25 30 30 26 27 31 34 34 34 34 33 33 32 32 31 29 29 29 28 26 25 24 23 23 23 22 21 20 19 19 20 19 17 17 16 16 15 16 16 16 14 14 14 13 12 12 12 10 9 9 9 9 9 9 8 8 8 8 9 9 9 8 6 6 6 7 9 10 9 7 5 5 5 5 4 3 3 4
9 9 9 9 13 19 21 23 27 29 25 23 26 31 33 32 33 33 32 32 32 31 30 30 29 28 27 26 25 24 23 23 23 22 21 20 20 20 19 18 17 17 16 16 17 18 17 16 16 16 15 14 13 12 11 12 12 11 11 10 11 11 10 10 10 10 10 9 9 8 7 6 7 9 9 7 6 4 4 5 5 4 3 2 3
9 9 8 9 13 18 22 24 24 26 28 26 26 29 33 34 34 33 33 33 33 31 30 29 29 29 27 25 25 24 23 23 23 23 22 21 21 20 19 20 19 17 17 17 17 17 17 17 17 16 16 15 14 14 13 13 13 13 12 12 12 12 12 12 12 11 11 10 10 10 9 7 6 8 8 8 7 6 5 5 5 3 3 2 3
7 6 5 8 13 16 19 21 22 25 30 31 29 30 32 33 33 33 33 33 32 30 29 28 28 28 27 25 25 25 24 24 23 23 23 22 21 21 20 21 19 17 17 17 17 17 16 17 17 16 15 15 15 15 15 15 15 14 14 13 13 13 13 13 12 10 10 9 10 10 9 8 8 9 9 8 7 6 6 5 5 4 3 4 3
5 4 4 4 7 11 15 19 21 25 30 31 31 32 33 34 34 34 33 32 32 30 29 29 29 27 26 25 24 24 24 24 24 23 22 22 21 21 21 21 20 19 18 18 18 17 16 16 17 16 15 15 15 15 15 16 15 15 16 15 14 14 14 13 12 11 10 9 9 9 9 8 9 10 11 9 7 7 7 6 6 6 4 4 4
8 7 7 7 4 2 8 15 20 25 29 30 31 32 33 33 33 34 33 32 32 31 29 30 29 26 24 24 23 22 21 22 24 23 22 22 22 22 22 22 21 21 20 19 19 19 18 17 17 16 16 16 15 15 15 15 15 15 16 15 14 14 14 14 13 12 11 10 10 10 10 10 11 12 11 10 9 8 8 7 7 6 5 4 4
7 7 7 7 5 2 5 11 15 19 24 27 29 32 34 35 35 35 35 34 32 30 28 28 28 25 22 24 26 25 21 21 24 24 23 22 23 23 23 23 23 23 22 21 21 21 20 20 18 17 16 16 16 15 15 15 14 14 14 14 14 13 13 14 14 13 12 12 12 12 12 12 12 12 12 10 10 10 9 8 7 6 4 5 5
5 6 6 7 6 4 5 8 8 4 5 7 8 9 13 17 20 24 30 33 33 30 27 25 26 24 21 22 24 25 24 24 25 25 25 24 24 25 25 24 23 24 24 23 22 22 21 21 20 19 17 17 16 16 15 15 14 14 14 13 13 13 13 14 14 13 12 13 13 14 14 13 12 13 13 12 12 12 10 8 7 6 5 5 6
5 6 6 6 5 6 8 12 17 17 15 18 20 15 12 11 8 6 7 14 22 26 26 24 24 23 21 22 22 22 22 21 22 23 22 20 20 23 27 27 25 24 24 24 24 23 22 22 21 20 19 19 18 17 16 15 15 14 13 13 14 13 12 12 13 14 14 14 13 14 14 13 12 11 11 12 12 12 11 10 9 8 7 7 7
6 6 7 7 7 8 11 14 15 16 18 19 17 13 12 11 10 7 4 3 5 11 14 16 19 20 20 21 22 22 19 16 16 19 18 16 15 17 21 24 25 25 25 25 25 24 23 22 22 22 20 20 20 18 17 16 16 15 14 14 15 13 10 9 9 10 12 13 12 12 13 12 11 10 10 11 12 12 12 12 11 10 9 8 8
7 6 7 8 7 9 11 14 15 18 21 20 17 17 18 17 17 15 12 10 9 9 8 7 7 11 16 20 22 21 18 14 13 16 17 15 14 14 15 17 19 22 23 25 25 24 23 22 21 21 21 20 20 20 18 17 17 17 16 15 14 13 12 12 11 8 8 9 10 11 11 10 11 11 12 12 12 12 13 13 12 11 9 9 9
7 5 6 6 6 7 10 12 15 18 21 22 22 21 22 23 22 17 17 18 17 15 14 11 7 6 9 13 15 16 15 14 13 14 14 13 13 13 13 13 15 17 18 20 21 22 22 22 21 21 20 20 20 20 20 18 17 17 17 16 14 13 13 13 13 11 9 9 10 10 10 11 11 11 12 13 14 14 14 14 13 12 10 9 8
5 5 5 5 5 6 8 9 11 14 15 18 21 21 20 21 21 18 18 19 17 15 18 19 15 11 9 6 6 7 8 8 8 9 9 9 9 9 10 11 12 13 14 15 16 19 20 21 20 20 21 20 20 20 20 19 18 17 17 17 16 16 16 13 12 11 10 9 10 10 9 10 11 11 11 12 13 14 13 13 13 12 10 8 7
3 5 6 7 9 11 12 12 11 10 11 13 16 18 17 15 15 15 17 18 15 12 13 15 14 14 14 10 8 7 6 7 6 5 6 7 7 7 8 9 10 11 12 13 14 16 18 18 18 18 19 20 20 21 21 19 19 18 18 18 17 17 18 16 14 12 10 9 10 11 10 10 12 13 12 12 11 12 13 13 12 11 9 7 7
5 5 5 7 12 14 14 15 14 12 12 12 12 14 13 11 11 12 14 17 16 13 11 10 10 11 13 13 13 12 13 15 13 10 9 8 8 8 8 8 9 10 12 13 14 15 16 17 17 17 17 18 19 20 20 19 18 18 18 18 17 17 17 17 16 14 10 9 12 12 11 11 13 13 13 11 11 12 13 13 11 9 8 7 7
6 5 3 3 7 12 15 17 17 16 15 13 12 13 13 13 13 13 14 15 14 13 12 10 9 8 8 10 11 11 11 12 12 11 8 5 5 6 7 9 9 10 12 12 12 13 13 14 16 16 17 17 18 18 18 17 15 15 15 15 14 15 15 17 18 15 11 11 13 13 12 12 13 14 14 12 11 12 13 11 10 9 9 8 7
10 9 6 4 5 10 15 17 18 19 17 15 15 16 17 16 15 13 12 11 9 8 6 5 5 5 4 5 6 7 8 9 10 11 10 9 10 10 10 11 12 12 13 13 12 12 14 14 14 15 16 17 17 17 16 15 12 11 12 12 12 12 14 17 19 16 13 13 13 13 13 12 13 14 14 12 12 13 13 13 12 11 11 9 9
14 14 14 13 12 12 15 17 18 19 18 17 17 18 19 19 18 15 15 14 12 10 8 6 5 4 4 4 3 3 5 9 11 9 9 11 14 14 13 12 12 12 12 12 13 13 14 12 11 12 15 16 16 15 15 14 12 10 10 11 12 12 15 18 19 17 15 14 14 13 13 13 13 13 12 11 11 11 13 13 13 12 11 10 10
14 14 17 18 18 19 19 18 19 19 18 18 19 19 20 20 20 18 16 16 15 14 13 12 11 9 8 7 5 3 3 9 10 8 8 9 10 12 12 12 13 12 11 12 12 11 11 12 14 14 14 14 14 14 14 14 12 11 12 13 13 13 16 19 20 18 17 16 15 14 13 13 13 12 12 12 11 10 11 11 11 11 11 10 10
14 14 18 21 22 21 20 19 20 19 19 21 22 21 19 18 19 19 16 14 14 12 12 12 11 11 12 13 11 7 5 6 6 6 7 8 8 10 10 11 11 11 11 11 12 11 13 17 17 15 13 12 11 11 12 12 12 10 11 13 14 15 17 19 20 18 17 16 15 13 12 11 11 11 11 12 11 10 10 9 10 10 10 10 10
17 16 20 22 23 22 20 18 18 17 17 19 21 21 19 18 20 21 18 16 15 13 12 11 10 10 12 13 11 9 7 7 6 5 4 4 3 5 7 9 9 8 7 8 13 16 17 17 15 12 11 10 9 9 9 10 11 10 10 11 14 16 18 18 19 18 16 15 12 10 10 11 11 11 10 10 10 9 9 9 9 9 9 10 10
21 20 21 22 22 22 22 19 17 16 16 18 21 21 20 19 20 20 18 15 14 13 12 12 12 11 11 11 10 8 7 8 8 8 9 9 8 6 4 3 5 5 4 8 12 15 15 13 10 8 7 7 6 6 5 6 7 9 10 11 14 17 19 20 20 20 18 16 13 12 12 11 10 10 10 9 8 8 8 9 9 9 10 10 9
19 20 22 23 21 21 21 19 18 17 17 18 20 20 19 18 17 15 15 15 13 12 12 12 13 12 11 11 10 8 8 10 11 12 12 12 12 11 10 8 7 8 9 11 12 12 13 12 10 8 6 5 3 3 3 3 4 6 9 10 12 16 18 19 22 22 20 19 17 16 15 13 11 10 9 8 8 8 9 9 10 10 10 10 9
16 18 21 23 22 20 19 18 17 17 17 18 20 20 19 17 14 11 12 12 12 12 12 12 12 12 12 13 13 12 11 11 12 13 13 13 12 12 12 12 12 12 13 14 13 12 12 12 11 10 9 7 5 4 3 3 2 3 3 4 7 9 9 11 17 20 19 19 19 18 16 14 12 10 9 9 9 9 10 11 11 10 9 9 8
17 18 20 21 21 20 19 17 15 15 15 15 16 16 16 15 13 11 11 11 11 11 10 10 11 12 12 14 14 14 13 12 11 10 10 10 11 11 11 12 12 13 15 15 14 12 12 13 13 11 10 8 6 5 5 5 4 4 4 4 1 1 3 7 13 15 15 15 16 15 14 13 12 11 9 8 9 10 10 9 10 10 9 9 7
18 19 20 21 21 20 19 17 14 13 13 12 12 13 13 11 10 11 11 11 11 11 10 9 10 11 12 13 15 15 15 14 13 11 10 9 9 9 9 10 10 12 14 15 14 13 13 14 13 11 9 8 6 6 7 7 6 5 6 6 5 5 6 5 6 8 7 7 8 8 10 10 11 10 9 8 8 8 8 7 7 8 9 8 6
17 18 19 20 20 18 16 15 14 12 11 10 10 11 10 9 8 8 9 9 9 9 9 8 8 11 12 13 14 14 14 14 13 13 13 12 11 10 10 10 10 11 11 11 12 12 12 11 10 9 8 7 7 7 7 7 7 6 6 5 5 6 7 5 4 4 2 1 3 5 6 7 8 9 9 9 8 6 6 6 6 6 7 6 5
16 18 19 19 20 18 16 15 14 12 10 10 10 9 7 6 7 6 6 7 7 7 6 6 8 12 15 14 14 13 13 12 11 11 12 13 12 12 12 13 12 11 10 9 9 9 8 7 7 7 6 5 5 5 5 6 6 5 5 4 4 5 6 6 5 5 3 3 3 3 4 4 4 5 7 8 6 3 2 2 2 3 4 6 8
17 17 18 17 18 17 17 16 14 12 10 9 8 7 5 5 6 5 4 4 4 4 5 6 9 14 16 16 15 13 11 10 10 10 12 13 13 12 12 13 13 11 10 9 8 8 6 5 5 5 4 3 4 4 4 5 5 5 5 5 5 6 6 7 7 6 3 1 1 1 3 2 2 2 3 4 3 6 8 9 10 10 12 14 15
16 16 16 16 14 13 13 13 12 10 9 8 7 6 5 6 7 5 3 3 4 6 8 10 12 15 16 15 15 14 13 12 11 11 13 14 14 12 11 11 11 10 9 8 8 8 6 4 3 3 3 2 2 2 3 4 4 5 6 6 6 7 7 7 7 6 4 3 4 6 6 6 7 8 8 9 13 15 16 17 16 17 18 18 18
16 16 15 14 12 11 10 11 10 8 7 7 6 5 4 5 6 5 4 5 7 10 12 12 13 14 14 14 14 13 13 13 12 11 12 14 15 14 13 12 11 10 9 8 8 8 6 4 3 3 2 1 1 1 2 3 4 5 5 6 6 7 7 7 6 5 6 8 11 14 16 16 17 18 17 17 18 19 19 19 19 19 18 17 17
Wind_Direction
161 145 151 155 154 158 161 163 163 164 169 170 171 172 169 168 170 172 173 174 171 169 169 171 175 174 168 171 174 173 173 172 173 174 177 182 185 182 176 173 170 169 171 171 169 168 162 151 151 159 154 138 129 111 40 5 5 5 0 1 355 348 352 359 10 37 163 182 193 195 186 199 216 214 211 217 227 254 246 221 212 190 136 140 90
153 144 153 154 152 157 160 163 163 165 170 173 173 171 167 165 166 168 171 174 173 171 171 173 176 173 165 164 164 164 170 174 175 175 176 180 183 181 176 171 166 163 165 169 170 171 169 159 157 164 162 155 146 138 68 6 2 7 11 15 7 2 4 4 17 33 168 164 151 169 202 240 249 254 251 255 267 269 243 213 203 195 158 157 167
149 147 155 153 151 156 160 163 164 167 171 173 173 170 167 167 166 166 168 172 173 173 174 174 174 173 168 166 166 163 165 170 172 174 176 177 178 180 179 175 169 163 164 168 170 174 177 171 172 181 180 181 186 186 163 351 354 16 27 20 13 14 17 17 9 359 302 157 113 65 323 278 294 287 278 287 281 255 233 219 213 206 175 180 194
152 153 156 153 152 156 160 162 161 163 167 170 172 170 170 171 170 169 168 169 172 175 177 176 174 176 174 171 174 173 171 171 170 173 179 176 176 182 185 181 176 171 169 167 166 177 186 180 178 184 180 182 193 200 260 340 356 19 32 24 14 16 25 34 16 4 18 106 126 40 28 72 348 295 329 355 314 240 221 215 215 215 201 205 204
156 157 158 156 156 158 161 162 159 161 165 168 171 172 173 175 176 175 171 171 173 174 178 178 176 178 177 172 173 174 173 174 173 177 181 177 178 184 185 187 185 180 175 170 168 180 190 186 184 186 175 168 181 201 252 348 5 20 32 28 22 17 22 33 33 35 49 52 63 113 35 33 264 266 21 37 55 157 201 208 213 221 225 234 225
158 159 160 160 159 158 161 162 160 162 166 169 171 173 175 176 178 177 175 174 175 176 180 182 179 178 177 172 173 175 174 178 180 180 182 182 185 186 186 189 185 180 176 174 178 185 187 186 183 184 173 159 160 183 217 317 22 51 38 25 26 25 24 33 36 43 57 54 53 57 43 201 223 319 81 45 66 122 179 194 204 218 228 242 236
157 160 161 161 160 159 161 163 163 165 168 170 171 174 176 176 179 179 177 177 180 183 185 184 182 182 182 178 179 181 180 182 184 183 185 188 189 191 192 187 176 174 180 182 192 191 183 177 175 178 171 159 157 159 195 30 140 90 32 26 33 32 29 34 32 30 39 44 47 45 44 71 103 94 136 159 65 111 159 168 176 197 206 225 233
157 162 163 163 163 162 164 165 167 169 169 170 173 176 177 177 180 179 178 182 186 187 186 185 183 181 183 183 183 185 185 184 184 187 190 190 189 192 192 186 177 180 189 193 199 195 184 176 172 175 174 172 180 167 335 296 207 197 30 41 44 34 27 27 28 28 27 27 35 37 35 50 76 95 133 150 117 113 179 172 180 204 170 180 230
159 164 165 166 166 165 166 167 169 172 172 174 176 178 179 179 182 182 183 186 187 186 186 189 189 184 182 182 182 184 185 184 186 190 191 189 190 190 185 183 183 191 196 198 202 200 192 183 176 174 173 183 190 180 297 260 226 247 37 51 35 25 21 15 19 26 28 29 32 31 31 43 58 72 98 116 113 118 274 257 261 310 144 137 12
163 165 167 168 168 168 168 167 169 172 174 176 177 178 179 180 182 186 188 186 185 187 188 190 192 190 186 182 180 181 182 183 186 189 188 189 191 187 184 185 189 197 200 200 202 202 199 193 187 180 172 179 187 193 242 217 205 228 232 45 14 348 336 358 14 21 30 35 33 30 29 35 38 34 32 35 49 77 124 246 280 332 53 306 334
168 166 168 169 169 169 168 168 170 172 173 175 177 177 178 181 184 188 190 187 186 189 189 190 192 193 190 186 182 181 182 182 184 187 187 190 191 188 189 191 195 200 201 204 205 203 203 200 194 187 177 180 186 187 203 199 201 221 229 335 353 346 342 339 0 20 31 33 32 28 21 22 26 16 5 6 357 347 71 179 327 325 305 305 320
170 165 168 168 168 169 169 170 171 172 175 176 176 178 179 182 186 188 188 188 190 191 190 190 190 191 192 190 187 186 187 186 187 190 190 193 194 192 192 196 200 201 201 207 208 207 210 205 193 186 182 191 199 197 197 200 214 239 261 282 322 3 15 356 351 21 28 24 26 24 15 15 22 23 22 33 33 7 64 126 62 358 298 305 314
170 162 167 168 168 171 171 171 171 172 176 178 178 180 181 183 186 188 188 189 191 192 192 192 190 191 191 191 191 191 193 193 194 195 193 195 196 195 196 199 201 202 202 207 210 211 212 205 193 186 190 205 213 210 207 210 226 239 254 268 286 346 19 6 357 17 23 16 13 7 9 19 22 22 27 38 43 46 68 79 51 39 19 2 358
168 162 168 169 170 174 174 173 173 173 176 178 179 181 182 183 186 188 189 190 192 193 193 194 194 194 194 194 195 195 195 197 199 199 197 197 198 198 200 200 198 201 207 210 212 215 212 205 200 196 200 212 214 214 213 215 228 229 228 243 255 278 315 335 342 3 16 10 4 357 2 18 19 18 21 26 41 59 74 68 36 26 24 21 29
171 161 169 172 172 174 175 175 176 176 175 176 179 182 182 184 187 189 189 190 193 194 194 197 197 197 198 199 199 197 197 199 200 200 199 200 201 202 205 203 202 205 209 213 216 220 215 205 206 207 207 210 210 216 218 218 227 222 213 220 229 245 266 284 299 319 349 351 354 353 351 358 4 9 11 5 1 9 33 41 28 44 30 5 13
178 165 168 174 174 175 176 177 178 176 174 175 178 181 182 184 187 190 190 191 193 194 196 199 199 199 200 201 201 199 198 199 199 199 200 202 203 206 209 210 211 212 212 214 218 222 218 211 212 215 216 218 218 221 223 223 227 226 220 219 219 228 241 250 267 282 303 317 332 341 341 345 355 358 355 340 319 316 328 345 358 70 90 5 351
182 173 168 172 177 178 178 179 179 175 173 176 179 181 182 184 186 189 191 192 193 195 197 200 201 201 201 201 203 204 203 202 200 200 203 206 208 211 212 213 214 214 215 216 216 222 223 220 219 219 218 225 227 224 224 225 225 228 228 225 222 228 235 240 255 266 274 290 308 329 338 339 339 348 358 2 355 314 297 319 335 316 161 120 116
184 182 173 169 177 181 179 180 180 176 175 178 180 182 183 184 186 188 190 192 193 194 198 201 203 202 201 201 204 207 208 205 204 205 206 208 213 213 211 210 210 212 216 215 215 222 228 226 221 218 217 224 226 225 225 224 222 224 230 231 227 231 238 241 250 258 263 274 283 299 320 321 319 324 332 343 355 331 303 320 334 291 276 270 173
184 187 181 170 173 179 178 175 175 175 177 179 181 183 184 185 187 189 192 194 195 195 197 202 204 203 203 203 204 206 209 208 207 209 210 211 214 213 210 210 211 215 217 214 217 224 225 223 219 215 215 220 223 226 229 226 222 224 232 236 230 231 242 246 251 257 260 264 268 276 286 286 288 290 286 293 310 323 316 314 311 277 263 266 231
182 184 184 173 170 174 172 167 165 168 175 179 180 182 184 186 187 190 192 195 195 195 197 200 203 204 205 205 206 207 210 211 211 212 214 214 214 213 212 211 212 216 217 215 219 221 219 219 215 211 215 221 224 227 231 226 226 231 235 236 232 234 248 255 259 261 257 257 262 278 288 275 270 277 282 281 278 299 319 306 288 268 241 243 246
176 176 180 174 167 168 169 167 164 164 171 178 180 182 185 186 186 188 190 192 195 196 197 200 202 203 206 207 207 209 212 213 213 213 214 216 216 215 215 214 215 217 218 216 216 217 217 218 217 215 220 225 224 226 230 227 229 235 237 237 232 235 250 257 260 264 264 262 263 277 290 280 277 283 284 279 272 289 320 302 277 276 260 248 249
175 174 175 173 166 163 165 167 163 160 167 180 186 185 184 185 186 187 188 191 194 195 196 200 202 204 208 209 208 211 213 214 214 214 215 217 216 214 214 216 218 218 219 219 218 220 222 222 221 222 226 228 226 228 232 230 230 235 238 238 232 233 244 250 254 264 270 269 265 267 273 277 288 290 283 280 276 288 317 299 274 283 287 255 234
176 174 172 171 167 161 161 165 162 161 170 183 193 191 186 187 187 186 187 191 193 195 197 199 201 205 209 210 210 212 212 214 214 215 216 217 215 214 214 216 218 219 221 221 221 223 224 223 223 225 228 229 227 230 233 231 230 234 237 236 232 234 242 248 255 264 269 269 265 262 262 263 276 281 281 288 286 279 290 286 267 278 294 258 222
167 163 153 154 161 161 162 164 163 166 176 185 193 193 187 187 187 186 188 190 191 193 196 199 201 204 207 210 211 211 211 213 215 216 217 219 218 216 214 215 217 220 224 224 221 220 222 223 225 227 228 226 228 232 235 233 233 235 237 238 236 238 243 247 254 261 264 265 260 259 261 257 259 268 276 286 283 269 276 281 264 264 279 272 253
77 62 47 87 150 164 165 166 168 173 181 189 192 191 187 186 187 187 187 187 190 192 196 200 203 204 206 208 208 209 210 211 213 216 218 219 222 220 216 216 218 221 223 224 221 218 220 223 225 227 225 224 230 235 235 235 237 239 239 240 241 244 247 248 251 257 262 257 248 251 259 258 258 264 269 272 268 262 270 272 260 259 264 265 265
76 65 46 43 41 83 154 166 176 179 183 189 190 186 184 183 185 186 185 185 187 191 195 200 202 202 202 203 203 206 213 216 213 214 218 220 222 223 221 220 220 221 222 222 221 220 221 222 223 225 225 226 231 234 234 236 239 240 240 242 246 250 251 250 250 256 259 253 247 252 260 261 262 264 265 264 261 262 264 259 252 253 249 247 260
108 108 106 108 121 153 148 159 177 186 188 190 189 185 182 182 184 185 185 185 184 187 191 194 197 198 200 202 202 202 211 221 219 215 218 223 224 224 223 223 222 222 223 223 222 221 222 223 223 224 226 227 228 230 232 232 234 237 240 243 247 252 252 248 248 254 258 256 256 259 262 261 259 258 259 258 259 262 262 257 254 253 246 243 249
91 98 114 130 145 143 98 89 80 93 156 143 132 146 157 164 173 178 181 183 184 186 188 190 193 197 200 202 200 200 206 218 222 218 218 222 225 226 225 223 223 223 224 224 222 221 223 224 224 225 227 226 225 228 230 230 231 234 238 241 248 256 257 252 250 254 258 258 258 259 263 261 254 255 257 254 256 261 260 258 254 245 236 235 240
90 102 115 113 106 93 83 75 61 50 55 61 60 60 64 72 86 109 153 174 180 184 187 191 195 198 200 199 199 201 206 212 216 216 216 218 220 223 225 225 225 226 226 225 224 224 225 225 224 226 228 226 226 228 231 233 233 234 235 239 246 255 258 259 261 262 259 257 259 263 266 262 253 253 255 252 253 256 253 250 244 234 229 234 244
113 122 129 123 122 124 125 123 106 85 81 82 86 104 117 121 134 135 92 76 151 172 175 184 194 200 203 204 201 200 200 199 199 202 205 206 201 203 211 217 221 225 226 225 224 224 226 227 226 226 226 225 226 227 230 233 233 234 235 238 245 249 252 260 271 275 269 263 262 265 264 255 246 245 246 245 245 247 245 245 240 231 229 244 256
119 126 141 139 139 145 143 140 132 116 113 119 129 136 142 152 156 151 145 148 165 170 150 144 175 196 203 202 197 195 197 198 193 188 188 189 185 181 183 191 201 209 215 218 219 221 224 226 226 226 225 224 224 225 228 231 232 233 234 237 242 247 250 250 250 263 278 268 260 262 255 243 241 243 241 237 235 237 240 238 233 232 243 257 260
128 120 134 135 133 148 151 146 139 130 130 140 148 149 156 162 158 146 140 150 162 170 167 160 151 167 195 198 192 192 200 206 202 193 188 188 186 182 177 176 180 188 197 205 211 215 220 223 224 225 225 225 225 226 228 229 229 229 231 232 235 241 250 249 241 245 257 254 253 254 241 231 236 242 241 236 234 237 238 233 233 242 252 253 250
138 118 109 103 85 90 106 117 123 125 131 144 152 155 160 164 160 152 149 153 155 160 171 176 176 181 196 212 209 193 192 201 202 196 194 194 195 195 192 187 185 185 189 196 203 210 214 218 220 220 222 225 226 227 227 228 228 227 227 230 234 239 245 244 238 240 245 243 242 237 223 222 230 235 235 233 232 236 235 233 237 243 241 241 247
71 97 97 95 90 85 87 100 114 119 123 137 150 156 159 157 153 149 152 158 161 164 169 169 173 186 197 219 251 247 225 230 230 211 205 208 210 213 210 207 203 198 195 195 198 201 203 207 211 210 213 218 222 225 229 231 232 230 230 234 235 237 240 237 230 232 238 235 228 220 215 220 227 231 233 230 229 230 228 229 234 235 233 239 250
60 70 71 93 108 107 102 111 126 132 127 129 139 149 150 142 134 130 132 142 157 180 196 178 162 174 190 210 237 246 237 236 237 232 225 218 213 213 216 218 212 204 203 203 201 199 199 202 206 207 209 214 219 224 230 234 235 234 235 238 237 235 235 230 221 220 224 224 219 216 217 223 227 230 231 229 228 224 220 221 223 222 222 228 234
81 83 60 71 116 121 115 113 119 120 118 120 125 132 131 121 116 113 108 116 138 167 194 189 160 153 170 191 213 225 224 224 228 229 230 226 219 219 218 220 215 203 200 200 197 195 195 197 203 207 208 210 212 218 224 230 234 234 234 235 234 233 229 219 211 208 208 212 216 217 219 223 226 228 229 228 225 218 214 212 207 203 205 213 225
82 90 91 86 109 118 114 114 114 111 109 110 113 117 116 111 111 113 111 110 117 136 168 184 163 157 170 181 199 210 205 204 214 224 236 243 244 243 235 226 222 211 201 197 191 185 181 185 196 205 209 208 208 210 216 222 225 227 231 231 227 224 220 213 209 206 208 213 217 220 223 224 224 228 231 229 221 216 213 210 206 205 208 216 228
76 80 81 82 86 89 92 99 102 101 106 113 116 118 116 112 113 115 116 118 117 118 121 114 107 123 153 164 175 197 212 224 226 223 225 230 233 236 234 224 219 216 207 197 189 182 178 182 198 211 212 213 213 213 216 222 221 216 220 227 225 218 213 212 209 207 210 217 218 220 222 223 224 228 230 226 219 215 214 210 209 212 215 219 224
75 82 85 84 84 83 87 93 93 94 104 113 116 116 112 112 117 123 124 124 124 122 112 99 94 101 110 110 98 95 212 232 231 215 202 207 214 221 225 222 222 223 216 203 197 194 200 212 224 228 223 220 223 224 224 227 227 217 211 217 224 219 212 211 210 207 208 210 213 217 219 219 222 225 225 223 219 215 215 215 216 217 219 221 222
83 87 91 89 87 87 88 92 95 99 109 117 119 116 110 109 113 117 120 123 123 122 113 103 100 99 94 89 88 100 145 185 194 188 189 197 204 212 220 223 224 226 221 207 194 190 201 213 221 224 221 218 224 230 230 230 229 220 208 209 216 216 213 210 207 205 202 199 202 211 214 212 214 215 213 215 214 213 216 220 223 225 225 222 223
102 101 98 98 98 97 94 95 103 111 117 120 120 115 109 105 104 105 110 116 119 120 119 115 110 102 96 94 99 110 119 122 127 133 137 149 184 208 216 217 218 222 212 178 159 159 173 188 199 205 207 208 215 227 235 236 234 226 215 211 212 215 218 213 205 200 196 190 190 199 203 202 204 204 204 206 208 213 218 221 224 228 228 226 229
112 112 108 106 104 102 102 105 114 125 127 125 120 113 106 101 97 98 105 112 118 120 117 112 111 111 112 114 119 122 107 96 99 100 94 91 89 90 110 170 196 200 175 142 134 136 145 153 162 174 181 190 201 211 226 238 237 227 222 219 216 217 219 214 205 202 202 200 202 207 207 205 207 208 207 208 213 219 224 227 229 231 230 232 233
109 107 107 107 104 103 108 113 120 126 125 120 112 104 101 99 96 101 106 109 116 125 122 117 116 118 120 118 120 123 108 94 93 94 92 94 97 98 100 108 124 134 130 124 121 121 123 123 123 122 124 134 155 172 195 222 226 216 218 220 217 218 221 216 207 204 204 202 202 204 204 208 214 218 219 221 225 234 240 241 239 237 235 236 234
104 104 106 106 102 102 104 107 111 114 113 113 108 101 97 95 99 114 122 119 124 130 128 126 124 124 121 113 110 114 112 101 96 95 93 92 93 98 104 109 115 119 118 117 119 120 120 117 112 109 105 107 115 126 147 164 159 171 194 206 209 211 210 194 186 187 190 192 191 192 197 204 211 219 229 237 240 245 247 247 246 246 244 243 239
107 108 108 105 103 103 101 99 101 101 101 104 107 105 98 90 96 114 123 126 132 134 132 134 132 127 121 115 111 112 114 110 103 98 98 97 94 93 97 102 107 109 110 112 115 115 114 111 109 105 99 95 98 97 96 97 99 100 88 75 87 159 103 122 143 157 170 182 186 191 198 206 212 217 225 237 246 248 248 249 253 253 251 250 246
108 109 110 108 105 103 100 98 95 94 96 97 102 106 101 94 101 112 113 116 121 122 126 136 143 140 131 125 121 117 114 112 105 98 99 104 103 100 100 104 107 105 104 106 110 112 113 111 108 104 97 92 89 84 81 85 91 93 83 68 43 31 41 70 120 136 152 175 187 200 211 221 231 234 232 236 246 251 250 250 250 246 243 242 235
117 116 115 112 108 103 101 100 96 93 95 96 99 103 102 103 108 109 111 114 111 111 117 126 144 157 153 141 133 126 118 113 106 100 100 100 100 101 102 105 113 116 113 110 109 111 113 112 108 104 99 95 90 85 82 83 82 78 73 61 44 35 31 28 46 63 58 247 242 239 234 235 244 247 244 242 251 269 277 268 251 237 234 228 211
126 124 121 116 112 109 109 110 109 109 109 108 110 110 109 117 119 112 117 119 106 104 113 112 131 152 155 148 141 135 125 117 109 105 104 100 95 94 93 94 100 112 124 129 129 127 126 126 123 114 101 89 86 80 72 66 62 57 51 42 29 25 23 19 21 20 355 306 276 249 227 222 234 239 239 242 255 299 310 253 202 184 181 166 153
133 132 129 124 120 120 121 120 121 126 125 122 123 120 121 136 139 134 135 123 99 96 107 111 129 144 147 144 141 137 130 124 118 112 108 102 95 92 91 90 89 93 103 116 124 125 126 132 134 122 98 76 73 63 44 33 27 19 14 9 7 10 13 15 18 22 24 11 324 201 194 207 225 226 225 214 168 125 119 120 120 121 126 129 131
134 135 134 132 131 134 134 130 132 137 137 134 130 124 130 147 152 151 138 116 116 120 117 118 129 139 140 135 131 126 120 117 115 112 109 105 101 97 96 96 94 92 94 99 102 100 96 89 94 100 91 73 51 21 5 1 358 353 351 355 0 3 5 13 22 32 47 65 77 89 98 101 103 105 109 119 126 125 118 111 109 111 113 115 115
134 136 136 138 143 148 147 145 146 146 145 146 141 129 131 145 155 159 137 121 132 134 126 123 129 136 138 135 129 124 119 115 113 113 112 110 108 104 99 97 97 97 97 95 95 95 92 82 74 79 85 74 7 319 321 327 331 336 340 347 356 3 12 24 33 52 81 95 97 94 93 96 100 100 99 105 112 113 109 106 105 104 104 105 105